• In Romania
  • List of Countries
  • For 7 days
  • Water Temperature
  • Satellite Maps
  • Weather Map
  • Weather Widgets
  • user-avatar
    Login

    Hourly Weather Sankt Polten

    Today, 27 July, Thursday

    Time Temperature Precipitation Wind Pressure Humidity
    00:00 +14°C° 0.5 mm 4 mps 731 mmHg 95%
    01:00 +14°C° 0 mm 4 mps 730 mmHg 95%
    02:00 +14°C° 1.1 mm 4 mps 731 mmHg 95%
    03:00 +14°C° 1.1 mm 4 mps 731 mmHg 95%
    04:00 +14°C° 1.1 mm 3 mps 731 mmHg 96%
    05:00 +14°C° 1.4 mm 3 mps 731 mmHg 96%
    06:00 +14°C° 1.4 mm 3 mps 732 mmHg 96%
    07:00 +14°C° 0 mm 3 mps 731 mmHg 95%
    08:00 +16°C° 0.6 mm 3 mps 732 mmHg 94%
    09:00 +16°C° 0.6 mm 3 mps 732 mmHg 92%
    10:00 +17°C° 0.6 mm 3 mps 732 mmHg 90%
    11:00 +19°C° 0.4 mm 4 mps 732 mmHg 84%
    12:00 +20°C° 0.4 mm 4 mps 732 mmHg 77%
    13:00 +21°C° 0 mm 4 mps 732 mmHg 73%
    14:00 +21°C° 0.2 mm 4 mps 732 mmHg 70%
    15:00 +22°C° 0.2 mm 4 mps 732 mmHg 68%
    16:00 +22°C° 0.2 mm 4 mps 732 mmHg 65%
    17:00 +21°C° 0.1 mm 3 mps 732 mmHg 71%
    18:00 +20°C° 0.1 mm 3 mps 732 mmHg 76%
    19:00 +19°C° 0.1 mm 2 mps 732 mmHg 82%
    20:00 +18°C° 0 mm 2 mps 732 mmHg 85%
    21:00 +17°C° 0 mm 2 mps 732 mmHg 88%
    22:00 +16°C° 0 mm 2 mps 732 mmHg 91%
    23:00 +16°C° 0 mm 2 mps 732 mmHg 91%

    Tomorrow, 28 July, Friday

    Time Temperature Precipitation Wind Pressure Humidity
    00:00 +16°C° 0 mm 2 mps 733 mmHg 90%
    01:00 +16°C° 0 mm 2 mps 733 mmHg 89%
    02:00 +16°C° 0 mm 2 mps 733 mmHg 89%
    03:00 +16°C° 0 mm 2 mps 733 mmHg 89%
    04:00 +16°C° 0 mm 2 mps 733 mmHg 89%
    05:00 +17°C° 0.1 mm 2 mps 733 mmHg 87%
    06:00 +18°C° 0.1 mm 2 mps 733 mmHg 85%
    07:00 +19°C° 0.1 mm 2 mps 733 mmHg 83%
    08:00 +19°C° 0.3 mm 3 mps 733 mmHg 82%
    09:00 +19°C° 0.3 mm 3 mps 734 mmHg 82%
    10:00 +20°C° 0.3 mm 3 mps 734 mmHg 82%
    11:00 +22°C° 0.1 mm 4 mps 734 mmHg 74%
    12:00 +23°C° 0.1 mm 4 mps 734 mmHg 66%
    13:00 +26°C° 0.1 mm 5 mps 734 mmHg 58%
    14:00 +26°C° 0.2 mm 5 mps 734 mmHg 58%
    15:00 +26°C° 0.2 mm 5 mps 734 mmHg 58%
    16:00 +26°C° 0.2 mm 5 mps 734 mmHg 57%
    17:00 +23°C° 0.1 mm 4 mps 735 mmHg 64%
    18:00 +22°C° 0.1 mm 3 mps 735 mmHg 70%
    19:00 +21°C° 0.1 mm 2 mps 735 mmHg 76%
    20:00 +19°C° 0 mm 2 mps 736 mmHg 80%
    21:00 +18°C° 0 mm 2 mps 736 mmHg 84%
    22:00 +17°C° 0 mm 2 mps 737 mmHg 88%
    23:00 +17°C° 0 mm 2 mps 737 mmHg 89%

    Day after tomorrow, 29 July, Saturday

    Time Temperature Precipitation Wind Pressure Humidity
    00:00 +16°C° 0 mm 1 mps 737 mmHg 89%
    01:00 +16°C° 0 mm 1 mps 737 mmHg 89%
    02:00 +16°C° 0 mm 1 mps 737 mmHg 90%
    03:00 +15°C° 0 mm 1 mps 737 mmHg 90%
    04:00 +15°C° 0 mm 1 mps 737 mmHg 90%
    05:00 +18°C° 0 mm 1 mps 738 mmHg 85%
    06:00 +20°C° 0 mm 1 mps 738 mmHg 80%
    07:00 +19°C° 0 mm 0 mps 738 mmHg 75%
    08:00 +24°C° 0 mm 1 mps 738 mmHg 68%
    09:00 +26°C° 0 mm 1 mps 738 mmHg 61%
    10:00 +28°C° 0 mm 1 mps 738 mmHg 54%
    11:00 +29°C° 0 mm 1 mps 738 mmHg 50%
    12:00 +30°C° 0 mm 1 mps 738 mmHg 47%
    13:00 +31°C° 0 mm 2 mps 738 mmHg 43%
    14:00 +31°C° 0 mm 2 mps 737 mmHg 44%
    15:00 +31°C° 0 mm 2 mps 737 mmHg 45%
    16:00 +31°C° 0 mm 2 mps 737 mmHg 45%
    17:00 +29°C° 0 mm 1 mps 737 mmHg 54%
    18:00 +27°C° 0 mm 1 mps 737 mmHg 62%
    19:00 +25°C° 0 mm 1 mps 737 mmHg 70%
    20:00 +25°C° 0.1 mm 1 mps 737 mmHg 72%
    21:00 +24°C° 0.1 mm 1 mps 737 mmHg 74%
    22:00 +23°C° 0.1 mm 1 mps 737 mmHg 75%
    23:00 +22°C° 0 mm 1 mps 737 mmHg 77%

    30 July, Sunday

    Time Temperature Precipitation Wind Pressure Humidity
    00:00 +22°C° 0 mm 1 mps 737 mmHg 78%
    01:00 +22°C° 0 mm 1 mps 737 mmHg 79%
    02:00 +21°C° 0.1 mm 1 mps 737 mmHg 81%
    03:00 +21°C° 0.1 mm 1 mps 737 mmHg 82%
    04:00 +21°C° 0.1 mm 1 mps 737 mmHg 84%
    05:00 +20°C° 0.1 mm 0 mps 737 mmHg 81%
    06:00 +21°C° 0.1 mm 0 mps 737 mmHg 78%
    07:00 +22°C° 0.1 mm 0 mps 737 mmHg 75%
    08:00 +26°C° 0 mm 1 mps 737 mmHg 68%
    09:00 +29°C° 0 mm 1 mps 737 mmHg 60%
    10:00 +31°C° 0 mm 1 mps 736 mmHg 53%
    11:00 +32°C° 0.2 mm 2 mps 736 mmHg 50%
    12:00 +34°C° 0.2 mm 2 mps 736 mmHg 48%
    13:00 +34°C° 0.2 mm 2 mps 736 mmHg 46%
    14:00 +34°C° 0.1 mm 2 mps 735 mmHg 46%
    15:00 +34°C° 0.1 mm 2 mps 735 mmHg 46%
    16:00 +34°C° 0.1 mm 2 mps 735 mmHg 46%
    17:00 +31°C° 0 mm 1 mps 735 mmHg 53%
    18:00 +29°C° 0 mm 1 mps 735 mmHg 61%
    19:00 +27°C° 0 mm 1 mps 735 mmHg 68%
    20:00 +26°C° 0.2 mm 1 mps 735 mmHg 71%
    21:00 +25°C° 0.2 mm 1 mps 736 mmHg 74%
    22:00 +24°C° 0.2 mm 2 mps 736 mmHg 77%
    23:00 +24°C° 0.1 mm 2 mps 736 mmHg 79%

    31 July, Monday

    Time Temperature Precipitation Wind Pressure Humidity
    00:00 +23°C° 0.1 mm 1 mps 736 mmHg 82%
    01:00 +23°C° 0.1 mm 1 mps 736 mmHg 84%
    02:00 +22°C° 0 mm 1 mps 736 mmHg 84%
    03:00 +22°C° 0 mm 1 mps 736 mmHg 85%
    04:00 +22°C° 0 mm 1 mps 736 mmHg 85%
    05:00 +23°C° 0.1 mm 1 mps 737 mmHg 81%
    06:00 +24°C° 0.1 mm 1 mps 737 mmHg 78%
    07:00 +24°C° 0.1 mm 0 mps 737 mmHg 75%
    08:00 +28°C° 0 mm 1 mps 738 mmHg 67%
    09:00 +30°C° 0 mm 1 mps 738 mmHg 59%
    10:00 +32°C° 0 mm 1 mps 738 mmHg 52%
    11:00 +33°C° 0 mm 1 mps 738 mmHg 49%
    12:00 +35°C° 0 mm 2 mps 738 mmHg 45%
    13:00 +35°C° 0 mm 2 mps 737 mmHg 42%
    14:00 +35°C° 0 mm 2 mps 737 mmHg 42%
    15:00 +35°C° 0 mm 3 mps 737 mmHg 42%
    16:00 +35°C° 0 mm 3 mps 737 mmHg 42%
    17:00 +34°C° 0 mm 2 mps 737 mmHg 49%
    18:00 +31°C° 0 mm 2 mps 737 mmHg 56%
    19:00 +29°C° 0 mm 2 mps 737 mmHg 63%
    20:00 +28°C° 0 mm 2 mps 737 mmHg 64%
    21:00 +27°C° 0 mm 2 mps 737 mmHg 65%
    22:00 +26°C° 0 mm 2 mps 737 mmHg 66%
    23:00 +25°C° 0 mm 2 mps 737 mmHg 67%

    1 August, Tuesday

    Time Temperature Precipitation Wind Pressure Humidity
    00:00 +25°C° 0 mm 2 mps 737 mmHg 68%
    01:00 +24°C° 0 mm 1 mps 736 mmHg 69%
    02:00 +24°C° 0 mm 1 mps 736 mmHg 70%
    03:00 +23°C° 0 mm 1 mps 736 mmHg 71%
    04:00 +23°C° 0 mm 1 mps 736 mmHg 72%
    05:00 +24°C° 0 mm 1 mps 736 mmHg 70%
    06:00 +25°C° 0 mm 1 mps 737 mmHg 69%
    07:00 +27°C° 0 mm 1 mps 737 mmHg 67%
    08:00 +29°C° 0 mm 2 mps 737 mmHg 60%
    09:00 +31°C° 0 mm 2 mps 737 mmHg 53%
    10:00 +34°C° 0 mm 2 mps 738 mmHg 46%
    11:00 +35°C° 0 mm 2 mps 737 mmHg 43%
    12:00 +36°C° 0 mm 2 mps 737 mmHg 40%
    13:00 +37°C° 0 mm 3 mps 737 mmHg 38%
    14:00 +37°C° 0 mm 2 mps 737 mmHg 38%
    15:00 +37°C° 0 mm 2 mps 737 mmHg 39%
    16:00 +37°C° 0 mm 2 mps 737 mmHg 39%
    17:00 +34°C° 0 mm 1 mps 737 mmHg 48%
    18:00 +32°C° 0 mm 1 mps 737 mmHg 57%
    19:00 +30°C° 0 mm 1 mps 737 mmHg 66%
    20:00 +29°C° 0 mm 1 mps 737 mmHg 68%
    21:00 +28°C° 0 mm 1 mps 737 mmHg 71%
    22:00 +26°C° 0 mm 1 mps 738 mmHg 73%
    23:00 +26°C° 0 mm 1 mps 738 mmHg 75%
    Show more